This demonstration page uses our WeatherBlox Daily Observations layout. Learn more.

Left ArrowRight Arrow

39.51506, -84.39828

Hourly Observations for April 20, 2020

Temp ( °F °C ) Dew Point ( °F °C ) Humidity (%) Winds ( mph kmh ) Pressure ( in mb ) Visibility ( mi km ) Precip ( " mm )
12:15 am 00:15 undefined 42 5.7 40 4.4 91 91 Calm 29.8 1009 N/A 0 0
12:35 am 00:35 undefined 43 6.2 39 4.1 87 87 N 5 7 29.79 1009 N/A 0 0
12:55 am 00:55 Clear 45 7 38 3.5 79 79 N 6 9 29.79 1009 N/A 0 0
1:15 am 01:15 Clear 45 7.3 38 3.5 77 77 Calm 29.8 1009 N/A 0 0
1:35 am 01:35 Clear 46 7.7 36 2 68 68 NNE 6 9 29.79 1009 N/A 0 0
1:55 am 01:55 Clear 46 7.7 35 1.6 66 66 N 6 9 29.79 1009 N/A 0 0
2:15 am 02:15 Clear 44 6.6 36 2 73 73 NNE 5 7 29.79 1009 N/A 0 0
2:35 am 02:35 Clear 45 7.4 33 0.3 61 61 N 6 9 29.78 1008 N/A 0 0
2:55 am 02:55 Clear 44 6.5 33 0.5 66 66 NNE 7 11 29.78 1008 N/A 0 0
3:35 am 03:35 Clear 44 6.4 32 0.1 64 64 N 7 11 29.78 1008 N/A 0 0
3:55 am 03:55 Clear 43 6.2 33 0.3 66 66 N 7 11 29.77 1008 N/A 0 0
4:15 am 04:15 Clear 42 5.6 33 0.7 71 71 N 7 11 29.77 1008 N/A 0 0
4:35 am 04:35 Clear 42 5.5 34 1.3 75 75 N 6 9 29.76 1008 N/A 0 0
4:55 am 04:55 Clear 41 5.1 34 1.1 76 76 N 5 7 29.77 1008 N/A 0 0
5:15 am 05:15 Partly Cloudy 40 4.7 35 1.4 79 79 N 6 9 29.76 1008 N/A 0 0
5:35 am 05:35 Clear 40 4.4 35 1.6 82 82 N 5 7 29.76 1008 N/A 0 0
5:55 am 05:55 undefined 39 4.1 35 1.6 84 84 N 6 9 29.77 1008 N/A 0 0
6:15 am 06:15 Clear 38 3.6 34 1.3 85 85 N 5 7 29.79 1009 N/A 0 0
6:35 am 06:35 undefined 38 3.6 34 1.3 85 85 N 5 7 29.8 1009 N/A 0 0
6:55 am 06:55 undefined 38 3.1 34 1.2 88 88 N 5 7 29.81 1009 N/A 0 0
7:15 am 07:15 undefined 37 3 34 1.2 88 88 N 5 7 29.82 1010 N/A 0 0
7:35 am 07:35 undefined 38 3.3 34 1.3 87 87 N 3 6 29.82 1010 N/A 0 0
7:55 am 07:55 undefined 39 3.9 35 1.5 85 85 N 3 6 29.82 1010 N/A 0 0
8:15 am 08:15 Sunny 40 4.6 35 1.5 81 81 N 7 11 29.82 1010 N/A 0 0
8:35 am 08:35 Sunny 41 5 35 1.4 78 78 NNE 9 15 29.83 1010 N/A 0 0
8:55 am 08:55 Sunny 42 5.4 35 1.5 76 76 NE 7 11 29.83 1010 N/A 0 0
9:15 am 09:15 Sunny 44 6.4 35 1.9 73 73 NNE 7 11 29.83 1010 N/A 0 0
9:35 am 09:35 Sunny 44 6.9 36 2 71 71 NE 9 15 29.83 1010 N/A 0 0
9:55 am 09:55 Sunny 46 7.6 36 2.4 70 70 NE 5 7 29.82 1010 N/A 0 0
10:15 am 10:15 Sunny 48 8.7 37 2.6 66 66 NE 3 6 29.82 1010 N/A 0 0
10:35 am 10:35 Sunny 48 8.9 37 2.6 65 65 NNE 3 6 29.81 1010 N/A 0 0
10:55 am 10:55 Sunny 49 9.7 37 2.8 62 62 NNE 3 6 29.82 1010 N/A 0 0
11:15 am 11:15 Sunny 51 10.6 37 3 60 60 Calm 29.82 1010 N/A 0 0
11:35 am 11:35 Sunny 53 11.6 37 2.7 55 55 Calm 29.81 1010 N/A 0 0
11:55 am 11:55 Sunny 54 12 39 3.8 58 58 SSE 3 6 29.81 1010 N/A 0 0
12:15 pm 12:15 Sunny 54 12.2 38 3.1 54 54 Calm 29.81 1010 N/A 0 0
12:35 pm 12:35 Sunny 56 13.6 37 2.6 48 48 Calm 29.8 1009 N/A 0 0
12:55 pm 12:55 Sunny 57 14.1 35 1.8 44 44 S 5 7 29.8 1009 N/A 0 0
1:15 pm 13:15 Sunny 58 14.6 31 -0.4 36 36 N 5 7 29.79 1009 N/A 0 0
1:35 pm 13:35 Sunny 58 14.4 26 -3.3 29 29 Calm 29.79 1009 N/A 0 0
1:55 pm 13:55 Sunny 59 15.1 31 -0.8 34 34 S 6 9 29.78 1008 N/A 0 0
2:15 pm 14:15 Sunny 60 15.6 30 -1 32 32 W 10 17 29.77 1008 N/A 0 0
2:35 pm 14:35 Sunny 60 15.6 29 -1.6 31 31 NNW 5 7 29.77 1008 N/A 0 0
2:55 pm 14:55 Sunny 61 15.9 32 -0.1 34 34 SSW 9 15 29.75 1008 N/A 0 0
3:15 pm 15:15 Sunny 61 16.1 31 -0.8 32 32 WNW 12 19 29.75 1008 N/A 0 0
3:35 pm 15:35 Sunny 62 16.4 30 -1 31 31 WNW 8 13 29.74 1007 N/A 0 0
3:55 pm 15:55 Sunny 62 16.7 30 -1.3 29 29 W 10 17 29.74 1007 N/A 0 0
4:15 pm 16:15 Sunny 63 17.2 30 -1.3 29 29 W 12 19 29.73 1007 N/A 0 0
4:55 pm 16:55 Sunny 64 17.5 31 -0.8 29 29 W 10 17 29.71 1006 N/A 0 0
5:15 pm 17:15 Sunny 64 17.7 29 -1.9 26 26 W 15 24 29.71 1006 N/A 0 0
5:35 pm 17:35 Sunny 64 17.8 29 -1.5 27 27 W 17 28 29.71 1006 N/A 0 0
5:55 pm 17:55 Cloudy 62 16.9 29 -1.7 28 28 W 12 19 29.7 1006 N/A 0 0
6:15 pm 18:15 Cloudy 62 16.6 29 -1.5 29 29 WSW 14 22 29.7 1006 N/A 0 0
6:35 pm 18:35 Cloudy 63 17.3 29 -1.7 28 28 WSW 13 20 29.7 1006 N/A 0 0
6:55 pm 18:55 Sunny 63 17.2 31 -0.6 30 30 SW 12 19 29.69 1005 N/A 0 0
7:15 pm 19:15 Sunny 62 16.7 31 -0.3 32 32 SW 12 19 29.69 1006 N/A 0 0
7:35 pm 19:35 Sunny 61 15.9 31 -0.4 33 33 WSW 12 19 29.69 1006 N/A 0 0
7:55 pm 19:55 Cloudy 60 15.4 33 0.7 37 37 SW 8 13 29.69 1005 N/A 0 0
8:15 pm 20:15 Cloudy 58 14.3 34 1.2 41 41 SW 7 11 29.69 1005 N/A 0 0
8:35 pm 20:35 Clear 56 13.4 35 1.7 45 45 SW 7 11 29.69 1005 N/A 0 0
8:55 pm 20:55 Clear 54 12.2 37 2.6 52 52 SW 6 9 29.68 1005 N/A 0 0
9:15 pm 21:15 Partly Cloudy 51 10.3 38 3.5 63 63 SW 6 9 29.7 1006 N/A 0 0
9:35 pm 21:35 Mostly Cloudy 50 10.2 39 4 66 66 SW 6 9 29.71 1006 N/A 0 0
9:55 pm 21:55 Partly Cloudy 52 11 37 3 58 58 SW 8 13 29.71 1006 N/A 0 0
10:15 pm 22:15 Cloudy 55 12.7 37 2.6 51 51 SW 10 17 29.71 1006 N/A 0 0
10:35 pm 22:35 Cloudy 56 13.3 36 2.1 47 47 SW 13 20 29.71 1006 N/A 0 0
10:55 pm 22:55 Clear 54 12 37 2.5 53 53 SW 9 15 29.7 1006 N/A 0 0
11:15 pm 23:15 Clear 53 11.8 37 2.5 53 53 SW 9 15 29.7 1006 N/A 0 0
11:35 pm 23:35 Clear 52 11.2 37 2.6 56 56 SW 9 15 29.7 1006 N/A 0 0
11:55 pm 23:55 Cloudy 54 12 37 3 54 54 SW 8 13 29.68 1005 N/A 0 0

Powered by AerisWeather